Time,TemperatureF,DewpointF,PressureIn,WindDirection,WindDirectionDegrees,WindSpeedMPH,WindSpeedGustMPH,Humidity,HourlyPrecipIn,Conditions,Clouds,dailyrainin,SoftwareType,DateUTC
2013-02-25 00:00:00,27.0,22.8,30.19,West,270,0.0,6.0,84,0.00,,,-99.99,Weather View 32 v60,2013-02-25 05:00:00,
2013-02-25 00:05:00,27.0,22.8,30.19,WNW,292,0.0,6.0,84,0.00,,,-99.99,Weather View 32 v60,2013-02-25 05:05:00,
2013-02-25 00:10:00,27.0,21.9,30.19,WNW,292,0.0,6.0,81,0.00,,,-99.99,Weather View 32 v60,2013-02-25 05:10:00,
2013-02-25 00:15:00,27.0,22.2,30.19,West,270,2.0,6.0,82,0.00,,,-99.99,Weather View 32 v60,2013-02-25 05:15:00,
2013-02-25 00:20:00,27.0,22.2,30.19,West,270,3.0,4.0,82,0.00,,,-99.99,Weather View 32 v60,2013-02-25 05:20:00,
2013-02-25 00:25:00,27.0,22.8,30.19,West,270,3.0,5.0,84,0.00,,,-99.99,Weather View 32 v60,2013-02-25 05:25:00,
2013-02-25 00:30:00,27.0,22.8,30.19,West,270,3.0,5.0,84,0.00,,,-99.99,Weather View 32 v60,2013-02-25 05:30:00,
2013-02-25 00:35:00,27.0,22.8,30.19,NW,315,0.0,6.0,84,0.00,,,-99.99,Weather View 32 v60,2013-02-25 05:35:00,
2013-02-25 00:40:00,27.0,23.4,30.20,West,270,3.0,6.0,86,0.00,,,-99.99,Weather View 32 v60,2013-02-25 05:40:00,
2013-02-25 00:45:00,27.0,22.8,30.20,West,270,0.0,6.0,84,0.00,,,-99.99,Weather View 32 v60,2013-02-25 05:45:00,
2013-02-25 00:50:00,27.0,23.1,30.20,NW,315,0.0,6.0,85,0.00,,,-99.99,Weather View 32 v60,2013-02-25 05:50:00,
2013-02-25 00:55:00,26.0,22.1,30.20,NNE,22,0.0,6.0,85,0.00,,,-99.99,Weather View 32 v60,2013-02-25 05:55:00,
2013-02-25 01:00:00,26.0,22.4,30.20,WNW,292,0.0,6.0,86,0.00,,,-99.99,Weather View 32 v60,2013-02-25 06:00:00,
2013-02-25 01:05:00,26.0,22.4,30.20,WNW,292,0.0,6.0,86,0.00,,,-99.99,Weather View 32 v60,2013-02-25 06:05:00,
2013-02-25 01:10:00,26.0,22.4,30.21,West,270,0.0,6.0,86,0.00,,,-99.99,Weather View 32 v60,2013-02-25 06:10:00,
2013-02-25 01:15:00,26.0,22.4,30.21,WNW,292,0.0,6.0,86,0.00,,,-99.99,Weather View 32 v60,2013-02-25 06:15:00,
2013-02-25 01:20:00,26.0,22.7,30.20,WNW,292,0.0,6.0,87,0.00,,,-99.99,Weather View 32 v60,2013-02-25 06:20:00,
2013-02-25 01:25:00,26.0,22.7,30.20,WNW,292,0.0,6.0,87,0.00,,,-99.99,Weather View 32 v60,2013-02-25 06:25:00,
2013-02-25 01:30:00,26.0,22.9,30.21,West,270,0.0,6.0,88,0.00,,,-99.99,Weather View 32 v60,2013-02-25 06:30:00,
2013-02-25 01:35:00,26.0,22.9,30.21,WNW,292,0.0,4.0,88,0.00,,,-99.99,Weather View 32 v60,2013-02-25 06:35:00,
2013-02-25 01:40:00,26.0,23.2,30.21,WNW,292,0.0,4.0,89,0.00,,,-99.99,Weather View 32 v60,2013-02-25 06:40:00,
2013-02-25 01:45:00,26.0,23.2,30.21,WNW,292,0.0,4.0,89,0.00,,,-99.99,Weather View 32 v60,2013-02-25 06:45:00,
2013-02-25 01:50:00,26.0,22.9,30.20,WNW,292,0.0,4.0,88,0.00,,,-99.99,Weather View 32 v60,2013-02-25 06:50:00,
2013-02-25 01:55:00,25.0,22.0,30.20,WNW,292,0.0,4.0,88,0.00,,,-99.99,Weather View 32 v60,2013-02-25 06:55:00,
2013-02-25 02:00:00,25.0,22.0,30.21,West,270,0.0,4.0,88,0.00,,,-99.99,Weather View 32 v60,2013-02-25 07:00:00,
2013-02-25 02:05:00,25.0,22.7,30.21,West,270,0.0,4.0,91,0.00,,,-99.99,Weather View 32 v60,2013-02-25 07:05:00,
2013-02-25 02:10:00,25.0,22.7,30.20,West,270,0.0,0.0,91,0.00,,,-99.99,Weather View 32 v60,2013-02-25 07:10:00,
2013-02-25 02:15:00,26.0,23.2,30.20,West,270,0.0,3.0,89,0.00,,,-99.99,Weather View 32 v60,2013-02-25 07:15:00,
2013-02-25 02:20:00,27.0,23.4,30.20,West,270,0.0,3.0,86,0.00,,,-99.99,Weather View 32 v60,2013-02-25 07:20:00,
2013-02-25 02:25:00,26.0,22.7,30.20,West,270,0.0,3.0,87,0.00,,,-99.99,Weather View 32 v60,2013-02-25 07:25:00,
2013-02-25 02:30:00,26.0,22.7,30.21,West,270,0.0,3.0,87,0.00,,,-99.99,Weather View 32 v60,2013-02-25 07:30:00,
2013-02-25 02:35:00,25.0,22.0,30.21,West,270,0.0,3.0,88,0.00,,,-99.99,Weather View 32 v60,2013-02-25 07:35:00,
2013-02-25 02:40:00,25.0,22.2,30.21,West,270,0.0,3.0,89,0.00,,,-99.99,Weather View 32 v60,2013-02-25 07:40:00,
2013-02-25 02:45:00,25.0,22.2,30.21,West,270,0.0,3.0,89,0.00,,,-99.99,Weather View 32 v60,2013-02-25 07:45:00,
2013-02-25 02:50:00,25.0,22.2,30.21,West,270,0.0,3.0,89,0.00,,,-99.99,Weather View 32 v60,2013-02-25 07:50:00,
2013-02-25 02:55:00,25.0,22.2,30.21,West,270,0.0,3.0,89,0.00,,,-99.99,Weather View 32 v60,2013-02-25 07:55:00,
2013-02-25 03:00:00,25.0,22.7,30.21,WSW,247,0.0,3.0,91,0.00,,,-99.99,Weather View 32 v60,2013-02-25 08:00:00,
2013-02-25 03:05:00,26.0,23.2,30.21,West,270,0.0,3.0,89,0.00,,,-99.99,Weather View 32 v60,2013-02-25 08:05:00,
2013-02-25 03:10:00,26.0,23.7,30.22,West,270,0.0,3.0,91,0.00,,,-99.99,Weather View 32 v60,2013-02-25 08:10:00,
2013-02-25 03:15:00,27.0,24.5,30.22,West,270,0.0,0.0,90,0.00,,,-99.99,Weather View 32 v60,2013-02-25 08:15:00,
2013-02-25 03:20:00,28.0,24.9,30.22,West,270,0.0,0.0,88,0.00,,,-99.99,Weather View 32 v60,2013-02-25 08:20:00,
2013-02-25 03:25:00,28.0,24.6,30.22,West,270,0.0,0.0,87,0.00,,,-99.99,Weather View 32 v60,2013-02-25 08:25:00,
2013-02-25 03:30:00,28.0,24.9,30.22,West,270,0.0,0.0,88,0.00,,,-99.99,Weather View 32 v60,2013-02-25 08:30:00,
2013-02-25 03:35:00,28.0,24.9,30.22,West,270,0.0,0.0,88,0.00,,,-99.99,Weather View 32 v60,2013-02-25 08:35:00,
2013-02-25 03:40:00,28.0,24.1,30.22,West,270,0.0,0.0,85,0.00,,,-99.99,Weather View 32 v60,2013-02-25 08:40:00,
2013-02-25 03:45:00,28.0,23.8,30.22,West,270,0.0,0.0,84,0.00,,,-99.99,Weather View 32 v60,2013-02-25 08:45:00,
2013-02-25 03:50:00,29.0,25.3,30.23,West,270,0.0,0.0,86,0.00,,,-99.99,Weather View 32 v60,2013-02-25 08:50:00,
2013-02-25 03:55:00,28.0,24.1,30.23,West,270,0.0,0.0,85,0.00,,,-99.99,Weather View 32 v60,2013-02-25 08:55:00,
2013-02-25 04:00:00,28.0,24.1,30.23,West,270,0.0,0.0,85,0.00,,,-99.99,Weather View 32 v60,2013-02-25 09:00:00,
2013-02-25 04:05:00,28.0,24.1,30.23,West,270,0.0,0.0,85,0.00,,,-99.99,Weather View 32 v60,2013-02-25 09:05:00,
2013-02-25 04:15:00,27.0,23.1,30.24,West,270,0.0,0.0,85,0.00,,,-99.99,Weather View 32 v60,2013-02-25 09:15:00,
2013-02-25 04:25:00,26.0,22.9,30.24,West,270,0.0,0.0,88,0.00,,,-99.99,Weather View 32 v60,2013-02-25 09:25:00,
2013-02-25 04:50:00,26.0,23.2,30.25,West,270,0.0,0.0,89,0.00,,,-99.99,Weather View 32 v60,2013-02-25 09:50:00,
2013-02-25 05:00:00,26.0,23.7,30.25,West,270,0.0,0.0,91,0.00,,,-99.99,Weather View 32 v60,2013-02-25 10:00:00,
2013-02-25 05:10:00,28.0,23.8,30.24,West,270,0.0,0.0,84,0.00,,,-99.99,Weather View 32 v60,2013-02-25 10:10:00,
2013-02-25 05:15:00,28.0,24.9,30.25,West,270,0.0,0.0,88,0.00,,,-99.99,Weather View 32 v60,2013-02-25 10:15:00,
2013-02-25 05:20:00,26.0,22.4,30.24,West,270,0.0,0.0,86,0.00,,,-99.99,Weather View 32 v60,2013-02-25 10:20:00,
2013-02-25 05:30:00,26.0,23.2,30.24,West,270,0.0,0.0,89,0.00,,,-99.99,Weather View 32 v60,2013-02-25 10:30:00,
2013-02-25 05:35:00,26.0,22.9,30.24,West,270,0.0,0.0,88,0.00,,,-99.99,Weather View 32 v60,2013-02-25 10:35:00,
2013-02-25 05:40:00,26.0,23.2,30.25,West,270,0.0,0.0,89,0.00,,,-99.99,Weather View 32 v60,2013-02-25 10:40:00,
2013-02-25 05:45:00,26.0,22.9,30.25,West,270,0.0,0.0,88,0.00,,,-99.99,Weather View 32 v60,2013-02-25 10:45:00,
2013-02-25 05:50:00,30.0,24.6,30.26,WNW,292,0.0,0.0,80,0.00,,,-99.99,Weather View 32 v60,2013-02-25 10:50:00,
2013-02-25 05:55:00,26.0,23.2,30.25,West,270,0.0,0.0,89,0.00,,,-99.99,Weather View 32 v60,2013-02-25 10:55:00,
2013-02-25 06:00:00,29.0,24.5,30.27,West,270,0.0,4.0,83,0.00,,,-99.99,Weather View 32 v60,2013-02-25 11:00:00,
2013-02-25 06:05:00,27.0,25.0,30.25,West,270,0.0,0.0,92,0.00,,,-99.99,Weather View 32 v60,2013-02-25 11:05:00,
2013-02-25 06:25:00,29.0,25.3,30.25,West,270,0.0,0.0,86,0.00,,,-99.99,Weather View 32 v60,2013-02-25 11:25:00,
2013-02-25 06:30:00,27.0,24.2,30.27,WNW,292,0.0,4.0,89,0.00,,,-99.99,Weather View 32 v60,2013-02-25 11:30:00,
2013-02-25 06:35:00,29.0,25.3,30.25,West,270,0.0,0.0,86,0.00,,,-99.99,Weather View 32 v60,2013-02-25 11:35:00,
2013-02-25 06:40:00,29.0,24.5,30.25,West,270,0.0,0.0,83,0.00,,,-99.99,Weather View 32 v60,2013-02-25 11:40:00,
2013-02-25 06:45:00,30.0,25.5,30.25,West,270,0.0,0.0,83,0.00,,,-99.99,Weather View 32 v60,2013-02-25 11:45:00,
2013-02-25 06:55:00,30.0,25.5,30.26,West,270,0.0,4.0,83,0.00,,,-99.99,Weather View 32 v60,2013-02-25 11:55:00,
2013-02-25 07:05:00,29.0,24.8,30.27,West,270,0.0,4.0,84,0.00,,,-99.99,Weather View 32 v60,2013-02-25 12:05:00,
2013-02-25 07:10:00,29.0,24.8,30.27,West,270,0.0,4.0,84,0.00,,,-99.99,Weather View 32 v60,2013-02-25 12:10:00,
2013-02-25 07:20:00,28.0,24.9,30.27,WSW,247,0.0,4.0,88,0.00,,,-99.99,Weather View 32 v60,2013-02-25 12:20:00,
2013-02-25 07:35:00,27.0,24.5,30.27,West,270,0.0,4.0,90,0.00,,,-99.99,Weather View 32 v60,2013-02-25 12:35:00,
2013-02-25 07:40:00,28.0,25.2,30.28,WSW,247,0.0,4.0,89,0.00,,,-99.99,Weather View 32 v60,2013-02-25 12:40:00,
2013-02-25 07:45:00,29.0,25.6,30.28,WNW,292,0.0,5.0,87,0.00,,,-99.99,Weather View 32 v60,2013-02-25 12:45:00,
2013-02-25 07:55:00,30.0,26.0,30.27,SW,225,0.0,5.0,85,0.00,,,-99.99,Weather View 32 v60,2013-02-25 12:55:00,
2013-02-25 08:00:00,30.0,25.8,30.27,West,270,0.0,5.0,84,0.00,,,-99.99,Weather View 32 v60,2013-02-25 13:00:00,
2013-02-25 08:10:00,31.0,25.9,30.27,West,270,1.0,7.0,81,0.00,,,-99.99,Weather View 32 v60,2013-02-25 13:10:00,
2013-02-25 08:15:00,32.0,25.9,30.27,WNW,292,0.0,7.0,78,0.00,,,-99.99,Weather View 32 v60,2013-02-25 13:15:00,
2013-02-25 08:25:00,34.0,26.9,30.27,WNW,292,0.0,7.0,75,0.00,,,-99.99,Weather View 32 v60,2013-02-25 13:25:00,
2013-02-25 08:31:00,34.0,26.6,30.27,WSW,247,2.0,7.0,74,0.00,,,-99.99,Weather View 32 v60,2013-02-25 13:31:00,
2013-02-25 08:40:00,36.0,28.8,30.26,West,270,0.0,7.0,75,0.00,,,-99.99,Weather View 32 v60,2013-02-25 13:40:00,
2013-02-25 08:45:00,37.0,30.1,30.26,SW,225,0.0,7.0,76,0.00,,,-99.99,Weather View 32 v60,2013-02-25 13:45:00,
2013-02-25 08:55:00,37.0,28.8,30.26,NNW,337,0.0,7.0,72,0.00,,,-99.99,Weather View 32 v60,2013-02-25 13:55:00,
2013-02-25 09:05:00,39.0,27.8,30.25,WNW,292,5.0,7.0,64,0.00,,,-99.99,Weather View 32 v60,2013-02-25 14:05:00,
2013-02-25 09:15:00,39.0,28.6,30.25,NNE,22,3.0,9.0,66,0.00,,,-99.99,Weather View 32 v60,2013-02-25 14:15:00,
2013-02-25 09:20:00,38.0,28.0,30.26,NNE,22,0.0,9.0,67,0.00,,,-99.99,Weather View 32 v60,2013-02-25 14:20:00,
2013-02-25 09:30:00,37.0,27.1,30.27,NNW,337,3.0,9.0,67,0.00,,,-99.99,Weather View 32 v60,2013-02-25 14:30:00,
2013-02-25 09:35:00,38.0,28.4,30.27,West,270,0.0,9.0,68,0.00,,,-99.99,Weather View 32 v60,2013-02-25 14:35:00,
2013-02-25 09:40:00,38.0,28.0,30.27,WNW,292,6.0,9.0,67,0.00,,,-99.99,Weather View 32 v60,2013-02-25 14:40:00,
2013-02-25 09:50:00,37.0,27.8,30.27,North,360,4.0,13.0,69,0.00,,,-99.99,Weather View 32 v60,2013-02-25 14:50:00,
2013-02-25 09:55:00,38.0,27.3,30.27,NNW,337,4.0,13.0,65,0.00,,,-99.99,Weather View 32 v60,2013-02-25 14:55:00,
2013-02-25 10:05:00,39.0,27.8,30.27,NW,315,3.0,13.0,64,0.00,,,-99.99,Weather View 32 v60,2013-02-25 15:05:00,
2013-02-25 10:15:00,41.0,29.7,30.27,NW,315,0.0,13.0,64,0.00,,,-99.99,Weather View 32 v60,2013-02-25 15:15:00,
2013-02-25 10:25:00,41.0,28.2,30.26,NNW,337,5.0,13.0,60,0.00,,,-99.99,Weather View 32 v60,2013-02-25 15:25:00,
2013-02-25 10:32:00,41.0,28.6,30.27,NNW,337,5.0,13.0,61,0.00,,,-99.99,Weather View 32 v60,2013-02-25 15:32:00,
2013-02-25 10:40:00,40.0,27.6,30.28,SW,225,3.0,13.0,61,0.00,,,-99.99,Weather View 32 v60,2013-02-25 15:40:00,
2013-02-25 10:45:00,39.0,27.5,30.28,West,270,3.0,13.0,63,0.00,,,-99.99,Weather View 32 v60,2013-02-25 15:45:00,
2013-02-25 10:55:00,39.0,27.8,30.28,West,270,0.0,12.0,64,0.00,,,-99.99,Weather View 32 v60,2013-02-25 15:55:00,
2013-02-25 11:00:00,39.0,27.8,30.29,WNW,292,0.0,12.0,64,0.00,,,-99.99,Weather View 32 v60,2013-02-25 16:00:00,
2013-02-25 11:05:00,39.0,27.5,30.29,WNW,292,5.0,12.0,63,0.00,,,-99.99,Weather View 32 v60,2013-02-25 16:05:00,
2013-02-25 11:10:00,39.0,28.2,30.29,WNW,292,8.0,12.0,65,0.00,,,-99.99,Weather View 32 v60,2013-02-25 16:10:00,
2013-02-25 11:20:00,39.0,27.8,30.29,West,270,0.0,12.0,64,0.00,,,-99.99,Weather View 32 v60,2013-02-25 16:20:00,
2013-02-25 11:30:00,39.0,28.2,30.29,NE,45,7.0,12.0,65,0.00,,,-99.99,Weather View 32 v60,2013-02-25 16:30:00,
2013-02-25 11:40:00,39.0,28.2,30.29,SW,225,1.0,12.0,65,0.00,,,-99.99,Weather View 32 v60,2013-02-25 16:40:00,
2013-02-25 11:45:00,39.0,27.8,30.29,WSW,247,0.0,12.0,64,0.00,,,-99.99,Weather View 32 v60,2013-02-25 16:45:00,
2013-02-25 11:50:00,38.0,27.3,30.31,NW,315,7.0,12.0,65,0.00,,,-99.99,Weather View 32 v60,2013-02-25 16:50:00,
2013-02-25 11:55:00,40.0,29.5,30.31,North,360,0.0,12.0,66,0.00,,,-99.99,Weather View 32 v60,2013-02-25 16:55:00,
2013-02-25 12:05:00,44.0,30.6,30.29,West,270,5.0,12.0,59,0.00,,,-99.99,Weather View 32 v60,2013-02-25 17:05:00,
2013-02-25 12:10:00,42.0,29.1,30.29,NW,315,2.0,12.0,60,0.00,,,-99.99,Weather View 32 v60,2013-02-25 17:10:00,
2013-02-25 12:20:00,43.0,27.5,30.28,WNW,292,5.0,10.0,54,0.00,,,-99.99,Weather View 32 v60,2013-02-25 17:20:00,
2013-02-25 12:25:00,43.0,28.4,30.28,NW,315,7.0,10.0,56,0.00,,,-99.99,Weather View 32 v60,2013-02-25 17:25:00,
2013-02-25 12:34:00,44.0,28.8,30.27,NNE,22,3.0,13.0,55,0.00,,,-99.99,Weather View 32 v60,2013-02-25 17:34:00,
2013-02-25 12:40:00,43.0,27.5,30.27,NE,45,0.0,13.0,54,0.00,,,-99.99,Weather View 32 v60,2013-02-25 17:40:00,
2013-02-25 12:45:00,42.0,27.0,30.27,WSW,247,6.0,13.0,55,0.00,,,-99.99,Weather View 32 v60,2013-02-25 17:45:00,
2013-02-25 12:55:00,42.0,26.5,30.27,NW,315,0.0,13.0,54,0.00,,,-99.99,Weather View 32 v60,2013-02-25 17:55:00,
2013-02-25 13:05:00,43.0,26.6,30.28,NW,315,0.0,13.0,52,0.00,,,-99.99,Weather View 32 v60,2013-02-25 18:05:00,
2013-02-25 13:15:00,42.0,26.5,30.27,North,360,5.0,13.0,54,0.00,,,-99.99,Weather View 32 v60,2013-02-25 18:15:00,
2013-02-25 13:20:00,42.0,25.2,30.26,NW,315,3.0,13.0,51,0.00,,,-99.99,Weather View 32 v60,2013-02-25 18:20:00,
2013-02-25 13:25:00,43.0,28.4,30.26,SW,225,3.0,13.0,56,0.00,,,-99.99,Weather View 32 v60,2013-02-25 18:25:00,
2013-02-25 13:34:00,42.0,25.6,30.27,NW,315,3.0,10.0,52,0.00,,,-99.99,Weather View 32 v60,2013-02-25 18:34:00,
2013-02-25 13:40:00,42.0,26.5,30.27,NW,315,2.0,10.0,54,0.00,,,-99.99,Weather View 32 v60,2013-02-25 18:40:00,
2013-02-25 13:45:00,43.0,27.5,30.27,North,360,3.0,12.0,54,0.00,,,-99.99,Weather View 32 v60,2013-02-25 18:45:00,
2013-02-25 13:55:00,44.0,28.4,30.27,NW,315,0.0,12.0,54,0.00,,,-99.99,Weather View 32 v60,2013-02-25 18:55:00,
2013-02-25 14:00:00,44.0,27.9,30.27,NW,315,0.0,12.0,53,0.00,,,-99.99,Weather View 32 v60,2013-02-25 19:00:00,
2013-02-25 14:10:00,43.0,27.0,30.27,WNW,292,0.0,12.0,53,0.00,,,-99.99,Weather View 32 v60,2013-02-25 19:10:00,
2013-02-25 14:20:00,44.0,28.8,30.28,North,360,0.0,12.0,55,0.00,,,-99.99,Weather View 32 v60,2013-02-25 19:20:00,
2013-02-25 14:30:00,46.0,28.4,30.27,North,360,0.0,12.0,50,0.00,,,-99.99,Weather View 32 v60,2013-02-25 19:30:00,
2013-02-25 14:40:00,44.0,26.5,30.27,NNW,337,1.0,12.0,50,0.00,,,-99.99,Weather View 32 v60,2013-02-25 19:40:00,
2013-02-25 14:45:00,43.0,25.6,30.27,North,360,0.0,9.0,50,0.00,,,-99.99,Weather View 32 v60,2013-02-25 19:45:00,
2013-02-25 14:55:00,43.0,26.1,30.28,NW,315,0.0,9.0,51,0.00,,,-99.99,Weather View 32 v60,2013-02-25 19:55:00,
2013-02-25 15:05:00,42.0,25.6,30.28,WNW,292,1.0,9.0,52,0.00,,,-99.99,Weather View 32 v60,2013-02-25 20:05:00,
2013-02-25 15:10:00,42.0,25.2,30.28,West,270,4.0,8.0,51,0.00,,,-99.99,Weather View 32 v60,2013-02-25 20:10:00,
2013-02-25 15:15:00,42.0,25.6,30.28,West,270,0.0,8.0,52,0.00,,,-99.99,Weather View 32 v60,2013-02-25 20:15:00,
2013-02-25 15:25:00,45.0,28.4,30.28,NNW,337,5.0,8.0,52,0.00,,,-99.99,Weather View 32 v60,2013-02-25 20:25:00,
2013-02-25 15:30:00,45.0,27.9,30.28,North,360,0.0,9.0,51,0.00,,,-99.99,Weather View 32 v60,2013-02-25 20:30:00,
2013-02-25 15:35:00,44.0,26.5,30.28,North,360,3.0,9.0,50,0.00,,,-99.99,Weather View 32 v60,2013-02-25 20:35:00,
2013-02-25 15:40:00,43.0,26.1,30.29,West,270,5.0,9.0,51,0.00,,,-99.99,Weather View 32 v60,2013-02-25 20:40:00,
2013-02-25 15:45:00,42.0,25.2,30.29,West,270,7.0,9.0,51,0.00,,,-99.99,Weather View 32 v60,2013-02-25 20:45:00,
2013-02-25 15:55:00,42.0,25.6,30.29,WNW,292,0.0,9.0,52,0.00,,,-99.99,Weather View 32 v60,2013-02-25 20:55:00,
2013-02-25 16:00:00,42.0,25.6,30.29,NNW,337,2.0,9.0,52,0.00,,,-99.99,Weather View 32 v60,2013-02-25 21:00:00,
2013-02-25 16:10:00,42.0,25.6,30.29,NNW,337,0.0,9.0,52,0.00,,,-99.99,Weather View 32 v60,2013-02-25 21:10:00,
2013-02-25 16:15:00,42.0,25.6,30.29,North,360,2.0,9.0,52,0.00,,,-99.99,Weather View 32 v60,2013-02-25 21:15:00,
2013-02-25 16:25:00,41.0,26.0,30.29,NW,315,0.0,9.0,55,0.00,,,-99.99,Weather View 32 v60,2013-02-25 21:25:00,
2013-02-25 16:35:00,41.0,25.2,30.29,NNW,337,3.0,8.0,53,0.00,,,-99.99,Weather View 32 v60,2013-02-25 21:35:00,
2013-02-25 16:40:00,41.0,25.6,30.29,NNE,22,3.0,8.0,54,0.00,,,-99.99,Weather View 32 v60,2013-02-25 21:40:00,
2013-02-25 16:45:00,41.0,25.6,30.29,WNW,292,1.0,11.0,54,0.00,,,-99.99,Weather View 32 v60,2013-02-25 21:45:00,
2013-02-25 16:55:00,41.0,26.0,30.30,North,360,0.0,11.0,55,0.00,,,-99.99,Weather View 32 v60,2013-02-25 21:55:00,
2013-02-25 17:05:00,40.0,25.5,30.30,North,360,0.0,11.0,56,0.00,,,-99.99,Weather View 32 v60,2013-02-25 22:05:00,
2013-02-25 17:10:00,40.0,26.0,30.30,North,360,1.0,11.0,57,0.00,,,-99.99,Weather View 32 v60,2013-02-25 22:10:00,
2013-02-25 17:15:00,40.0,26.0,30.30,NW,315,0.0,11.0,57,0.00,,,-99.99,Weather View 32 v60,2013-02-25 22:15:00,
2013-02-25 17:25:00,40.0,26.4,30.31,NW,315,0.0,11.0,58,0.00,,,-99.99,Weather View 32 v60,2013-02-25 22:25:00,
2013-02-25 17:30:00,40.0,26.4,30.31,NW,315,0.0,11.0,58,0.00,,,-99.99,Weather View 32 v60,2013-02-25 22:30:00,
2013-02-25 17:36:00,39.0,25.9,30.31,NW,315,0.0,11.0,59,0.00,,,-99.99,Weather View 32 v60,2013-02-25 22:36:00,
2013-02-25 17:45:00,39.0,25.9,30.32,NW,315,0.0,7.0,59,0.00,,,-99.99,Weather View 32 v60,2013-02-25 22:45:00,
2013-02-25 17:50:00,39.0,26.3,30.32,North,360,0.0,7.0,60,0.00,,,-99.99,Weather View 32 v60,2013-02-25 22:50:00,
2013-02-25 18:00:00,38.0,25.7,30.33,NW,315,0.0,7.0,61,0.00,,,-99.99,Weather View 32 v60,2013-02-25 23:00:00,
2013-02-25 18:05:00,38.0,25.7,30.33,North,360,0.0,7.0,61,0.00,,,-99.99,Weather View 32 v60,2013-02-25 23:05:00,
2013-02-25 18:10:00,38.0,26.5,30.33,North,360,0.0,7.0,63,0.00,,,-99.99,Weather View 32 v60,2013-02-25 23:10:00,
2013-02-25 18:20:00,37.0,25.9,30.33,North,360,0.0,6.0,64,0.00,,,-99.99,Weather View 32 v60,2013-02-25 23:20:00,
2013-02-25 18:30:00,36.0,25.7,30.34,NNW,337,0.0,4.0,66,0.00,,,-99.99,Weather View 32 v60,2013-02-25 23:30:00,
2013-02-25 18:35:00,36.0,25.7,30.34,NW,315,0.0,4.0,66,0.00,,,-99.99,Weather View 32 v60,2013-02-25 23:35:00,
2013-02-25 18:40:00,36.0,25.7,30.35,NW,315,0.0,3.0,66,0.00,,,-99.99,Weather View 32 v60,2013-02-25 23:40:00,
2013-02-25 18:45:00,36.0,25.7,30.35,SW,225,0.0,3.0,66,0.00,,,-99.99,Weather View 32 v60,2013-02-25 23:45:00,
2013-02-25 18:55:00,36.0,25.7,30.35,SW,225,0.0,0.0,66,0.00,,,-99.99,Weather View 32 v60,2013-02-25 23:55:00,
2013-02-25 19:05:00,35.0,25.1,30.35,SW,225,0.0,0.0,67,0.00,,,-99.99,Weather View 32 v60,2013-02-26 00:05:00,
2013-02-25 19:10:00,35.0,25.1,30.36,SW,225,0.0,0.0,67,0.00,,,-99.99,Weather View 32 v60,2013-02-26 00:10:00,
2013-02-25 19:20:00,34.0,24.9,30.36,SW,225,0.0,0.0,69,0.00,,,-99.99,Weather View 32 v60,2013-02-26 00:20:00,
2013-02-25 19:25:00,34.0,25.2,30.36,SW,225,0.0,0.0,70,0.00,,,-99.99,Weather View 32 v60,2013-02-26 00:25:00,
2013-02-25 19:35:00,33.0,24.6,30.36,SW,225,0.0,0.0,71,0.00,,,-99.99,Weather View 32 v60,2013-02-26 00:35:00,
2013-02-25 19:40:00,33.0,24.6,30.37,SW,225,0.0,0.0,71,0.00,,,-99.99,Weather View 32 v60,2013-02-26 00:40:00,
2013-02-25 19:50:00,32.0,24.3,30.37,SW,225,0.0,0.0,73,0.00,,,-99.99,Weather View 32 v60,2013-02-26 00:50:00,
2013-02-25 19:55:00,31.0,23.7,30.37,SW,225,0.0,0.0,74,0.00,,,-99.99,Weather View 32 v60,2013-02-26 00:55:00,
2013-02-25 20:05:00,32.0,25.6,30.37,SW,225,0.0,0.0,77,0.00,,,-99.99,Weather View 32 v60,2013-02-26 01:05:00,
2013-02-25 20:10:00,32.0,25.3,30.38,SW,225,0.0,0.0,76,0.00,,,-99.99,Weather View 32 v60,2013-02-26 01:10:00,
2013-02-25 20:20:00,32.0,25.3,30.37,SW,225,0.0,0.0,76,0.00,,,-99.99,Weather View 32 v60,2013-02-26 01:20:00,
2013-02-25 20:25:00,32.0,25.0,30.37,SW,225,0.0,0.0,75,0.00,,,-99.99,Weather View 32 v60,2013-02-26 01:25:00,
2013-02-25 20:30:00,32.0,25.3,30.37,SW,225,0.0,0.0,76,0.00,,,-99.99,Weather View 32 v60,2013-02-26 01:30:00,
2013-02-25 20:38:00,32.0,25.3,30.37,SW,225,0.0,0.0,76,0.00,,,-99.99,Weather View 32 v60,2013-02-26 01:38:00,
2013-02-25 20:45:00,32.0,25.9,30.38,SW,225,0.0,0.0,78,0.00,,,-99.99,Weather View 32 v60,2013-02-26 01:45:00,
2013-02-25 20:55:00,32.0,25.0,30.37,SW,225,0.0,0.0,75,0.00,,,-99.99,Weather View 32 v60,2013-02-26 01:55:00,
2013-02-25 21:05:00,32.0,25.0,30.37,SW,225,0.0,0.0,75,0.00,,,-99.99,Weather View 32 v60,2013-02-26 02:05:00,
2013-02-25 21:10:00,32.0,25.6,30.38,SW,225,0.0,0.0,77,0.00,,,-99.99,Weather View 32 v60,2013-02-26 02:10:00,
2013-02-25 21:20:00,32.0,25.6,30.38,SW,225,0.0,0.0,77,0.00,,,-99.99,Weather View 32 v60,2013-02-26 02:20:00,
2013-02-25 21:30:00,32.0,26.5,30.39,SW,225,0.0,0.0,80,0.00,,,-99.99,Weather View 32 v60,2013-02-26 02:30:00,
2013-02-25 21:35:00,32.0,25.9,30.39,SW,225,0.0,0.0,78,0.00,,,-99.99,Weather View 32 v60,2013-02-26 02:35:00,
2013-02-25 21:40:00,32.0,25.6,30.39,SW,225,0.0,0.0,77,0.00,,,-99.99,Weather View 32 v60,2013-02-26 02:40:00,
2013-02-25 21:45:00,31.0,24.9,30.39,SW,225,0.0,0.0,78,0.00,,,-99.99,Weather View 32 v60,2013-02-26 02:45:00,
2013-02-25 21:50:00,31.0,24.9,30.38,SW,225,0.0,0.0,78,0.00,,,-99.99,Weather View 32 v60,2013-02-26 02:50:00,
2013-02-25 22:00:00,31.0,25.9,30.38,SW,225,0.0,0.0,81,0.00,,,-99.99,Weather View 32 v60,2013-02-26 03:00:00,
2013-02-25 22:05:00,31.0,25.9,30.38,SW,225,0.0,0.0,81,0.00,,,-99.99,Weather View 32 v60,2013-02-26 03:05:00,
2013-02-25 22:10:00,31.0,25.9,30.39,SW,225,0.0,0.0,81,0.00,,,-99.99,Weather View 32 v60,2013-02-26 03:10:00,
2013-02-25 22:20:00,30.0,25.8,30.38,SW,225,0.0,0.0,84,0.00,,,-99.99,Weather View 32 v60,2013-02-26 03:20:00,
2013-02-25 22:25:00,30.0,24.9,30.38,SW,225,0.0,0.0,81,0.00,,,-99.99,Weather View 32 v60,2013-02-26 03:25:00,
2013-02-25 22:30:00,30.0,24.9,30.38,SW,225,0.0,0.0,81,0.00,,,-99.99,Weather View 32 v60,2013-02-26 03:30:00,
2013-02-25 22:35:00,30.0,25.5,30.38,SW,225,0.0,0.0,83,0.00,,,-99.99,Weather View 32 v60,2013-02-26 03:35:00,
2013-02-25 22:45:00,30.0,25.2,30.37,SW,225,0.0,0.0,82,0.00,,,-99.99,Weather View 32 v60,2013-02-26 03:45:00,
2013-02-25 22:50:00,30.0,24.9,30.38,SW,225,0.0,0.0,81,0.00,,,-99.99,Weather View 32 v60,2013-02-26 03:50:00,
2013-02-25 22:55:00,29.0,23.9,30.38,SW,225,0.0,0.0,81,0.00,,,-99.99,Weather View 32 v60,2013-02-26 03:55:00,
2013-02-25 23:00:00,28.0,24.1,30.36,SW,225,0.0,0.0,85,0.00,,,-99.99,Weather View 32 v60,2013-02-26 04:00:00,
2013-02-25 23:05:00,28.0,23.5,30.37,SW,225,0.0,0.0,83,0.00,,,-99.99,Weather View 32 v60,2013-02-26 04:05:00,
2013-02-25 23:10:00,27.0,23.9,30.37,SW,225,0.0,0.0,88,0.00,,,-99.99,Weather View 32 v60,2013-02-26 04:10:00,
2013-02-25 23:15:00,28.0,24.1,30.37,SW,225,0.0,0.0,85,0.00,,,-99.99,Weather View 32 v60,2013-02-26 04:15:00,
2013-02-25 23:20:00,27.0,23.9,30.36,SW,225,0.0,0.0,88,0.00,,,-99.99,Weather View 32 v60,2013-02-26 04:20:00,
2013-02-25 23:25:00,30.0,26.3,30.38,SW,225,0.0,0.0,86,0.00,,,-99.99,Weather View 32 v60,2013-02-26 04:25:00,
2013-02-25 23:30:00,30.0,26.0,30.37,SW,225,0.0,0.0,85,0.00,,,-99.99,Weather View 32 v60,2013-02-26 04:30:00,
2013-02-25 23:35:00,30.0,25.5,30.37,SW,225,0.0,0.0,83,0.00,,,-99.99,Weather View 32 v60,2013-02-26 04:35:00,
2013-02-25 23:40:00,29.0,24.8,30.38,SW,225,0.0,0.0,84,0.00,,,-99.99,Weather View 32 v60,2013-02-26 04:40:00,
2013-02-25 23:45:00,26.0,25.0,30.38,SW,225,0.0,0.0,96,0.00,,,-99.99,Weather View 32 v60,2013-02-26 04:45:00,
2013-02-25 23:50:00,30.0,26.6,30.37,SW,225,0.0,0.0,87,0.00,,,-99.99,Weather View 32 v60,2013-02-26 04:50:00,
2013-02-25 23:55:00,29.0,25.1,30.37,SW,225,0.0,0.0,85,0.00,,,-99.99,Weather View 32 v60,2013-02-26 04:55:00,